Probability
0 0 0 0 0 0 0 0 0 0 0 0 0 0 0 0 0 0 0 0 0 0 0 0 0 0 0 0 0 0 0 0 0 0 0 0 0 0 0 0 0 0 0 0
0 0 0 0 0 0 0 0 0 0 0 0 0 0 0 0 0 0 0 0 0 0 0 0 0 0 0 0 0 0 0 0 0 0 0 0 0 0 0 0 0 0 0 0
0 0 0 0 0 0 0 0 0 0 0 0 0 0 0 0 0 0 0 0 0 0 0 0 0 0 0 0 0 0 0 0 0 0 0 0 0 0 0 0 0 0 0 0
0 0 0 0 0 0 0 0 0 0 0 0 0 0 0 0 0 0 0 0 0 0 0 0 0 0 0 0 0 0 0 0 0 0 0 0 0 0 0 0 0 0 0 0
0 0 0 0 0 0 0 0 0 0 0 0 0 0 0 0 0 0 0 0 0 0 0 0 0 0 0 0 0 0 0 0 0 0 0 0 0 0 0 0 0 0 0 0
0 0 0 0 0 0 0 0 0 0 0 0 0 0 0 0 0 0 0 0 0 0 0 0 0 0 0 0 0 0 0 0 0 0 0 0 0 0 0 0 0 0 0 0
0 0 0 0 0 0 0 0 0 0 0 0 0 0 0 0 0 0 0 0 0 0 0 0 0 0 0 0 0 0 0 0 0 0 0 0 0 0 0 0 0 0 0 0
0 0 0 0 0 0 0 0 0 0 0 0 0 0 0 0 0 0 0 0 0 0 0 0 0 0 0 0 0 0 0 0 0 0 0 0 0 0 0 0 0 0 0 0
0 0 0 0 0 0 0 0 0 0 0 0 0 0 0 0 0 0 0 0 0 0 0 0 0 0 0 0 0 0 0 0 0 0 0 0 0 0 0 0 0 0 0 0
0 0 0 0 0 0 0 0 0 0 0 0 0 0 0 0 0 0 0 0 0 0 0 0 0 0 0 0 0 0 0 0 0 0 0 0 0 0 0 0 0 0 0 0
0 0 0 0 0 0 0 0 0 0 0 0 0 0 0 0 0 0 0 0 0 0 0 0 0 0 0 0 0 0 0 0 0 0 0 0 0 0 0 0 0 0 0 0
0 0 0 0 0 0 0 0 0 0 0 0 0 0 0 0 0 0 0 0 0 0 0 0 0 0 0 0 0 0 0 0 0 0 0 0 0 0 0 0 0 0 0 0
0 0 0 0 0 0 0 0 0 0 0 0 0 0 0 0 0 0 0 0 0 0 0 0 0 0 0 0 0 0 0 0 0 0 0 0 0 0 0 0 0 0 0 0
0 0 0 0 0 0 0 0 0 0 0 0 0 0 0 0 0 0 0 0 0 0 0 0 0 0 0 0 0 0 0 0 0 0 0 0 0 0 0 0 0 0 0 0
0 0 0 0 0 0 0 0 0 0 0 0 0 0 0 0 0 0 0 0 0 0 0 0 0 0 0 0 0 0 0 0 0 0 0 0 0 0 0 0 0 0 0 0
0 0 0 0 0 0 0 0 0 0 0 0 0 0 0 0 0 0 0 0 0 0 0 0 0 0 0 0 0 0 0 0 0 0 0 0 0 0 0 0 0 0 0 0
0 0 0 0 0 0 0 0 0 0 0 0 0 0 0 0 0 0 0 0 0 0 0 0 0 0 0 0 0 0 0 0 0 0 0 0 0 0 0 0 0 0 0 0
0 0 0 0 0 0 0 0 0 0 0 0 0 0 0 0 0 0 0 0 0 0 0 0 0 0 0 0 0 0 0 0 0 0 0 0 0 0 0 0 0 0 0 0
0 0 0 0 0 0 0 0 0 0 0 0 0 0 0 0 0 0 0 0 0 0 0 0 0 0 0 0 0 0 0 0 0 0 0 0 0 0 0 0 0 0 0 0
0 0 0 0 0 0 0 0 0 0 0 0 0 0 0 0 0 0 0 0 0 0 0 0 0 0 0 0 0 0 0 0 0 0 0 0 0 0 0 0 0 0 0 0
0 0 0 0 0 0 0 0 0 0 0 0 0 0 0 0 0 0 0 0 0 0 0 0 0 0 0 0 0 0 0 0 0 0 0 0 0 0 0 0 0 0 0 0
0 0 0 0 0 0 0 0 0 0 0 0 0 0 0 0 0 0 0 0 0 0 0 0 0 0 0 0 0 0 0 0 0 0 0 0 0 0 0 0 0 0 0 0
0 0 0 0 0 0 0 0 0 0 0 0 0 0 0 0 0 0 0 0 0 0 0 0 0 0 0 0 0 0 0 0 0 0 0 0 0 0 0 0 0 0 0 0
0 0 0 0 0 0 0 0 0 0 0 0 0 0 0 0 0 0 0 0 0 0 0 0 0 0 0 0 0 0 0 0 0 0 0 0 0 0 0 0 0 0 0 0
0 0 0 0 0 0 0 0 0 0 0 0 0 0 0 0 0 0 0 0 0 0 0 0 0 0 0 0 0 0 0 0 0 0 0 0 0 0 0 0 0 0 0 0
0 0 0 0 0 0 0 0 0 0 0 0 0 0 0 0 0 0 0 0 0 0 0 0 0 0 0 0 0 0 0 0 0 0 0 0 0 0 0 0 0 0 0 0
0 0 0 0 0 0 0 0 0 0 0 0 0 0 0 0 0 0 0 0 0 0 0 0 0 0 0 0 0 0 0 0 0 0 0 0 0 0 0 0 0 0 0 0
Wind_Speed
13 7 13 15 19 22 24 23 19 18 19 19 17 16 14 12 9 8 7 7 9 11 11 12 13 14 14 14 14 14 14 14 13 12 11 10 9 9 8 8 7 7 7 7
13 11 12 12 17 21 24 23 24 22 21 17 17 15 14 13 11 10 10 9 9 10 11 13 14 14 14 14 14 14 14 13 12 11 10 10 9 9 8 8 7 7 7 8
13 11 8 16 20 21 20 20 19 22 22 17 15 14 14 13 11 11 10 8 8 10 11 11 12 13 14 13 13 14 13 12 12 11 11 10 9 8 8 8 7 8 8 8
8 11 14 11 8 17 20 20 20 18 17 16 16 13 11 11 11 10 8 7 7 7 8 8 9 10 11 11 12 12 12 12 11 11 10 9 9 8 8 7 7 7 8 9
8 11 11 6 7 12 16 17 19 21 20 15 7 6 9 9 9 8 6 4 4 5 6 7 9 10 11 11 11 11 12 11 11 10 10 9 9 8 7 6 7 7 7 9
8 10 12 9 8 9 9 11 12 16 18 13 8 7 7 3 5 5 3 3 4 5 7 8 9 10 11 11 11 11 10 10 9 9 9 8 8 6 5 6 7 7 8 9
12 11 10 5 8 13 11 8 5 11 14 12 12 9 2 5 4 4 4 5 6 6 6 7 9 10 10 10 10 9 8 8 8 8 7 7 6 5 5 5 6 7 9 9
13 12 11 9 13 14 7 3 4 6 8 10 10 5 5 5 5 6 6 6 7 7 7 7 8 9 9 8 8 8 8 8 7 7 5 4 5 5 5 6 7 8 9 9
13 12 3 14 12 9 4 6 6 6 6 8 8 8 7 6 7 6 6 7 7 8 8 7 7 8 9 8 8 8 8 7 6 5 4 4 5 5 5 6 6 7 7 8
8 8 7 11 8 6 7 6 5 5 7 9 8 9 8 8 7 7 7 7 7 9 9 8 7 7 7 8 8 8 7 6 5 4 4 4 4 4 5 6 6 7 7 8
10 5 5 9 13 11 9 6 5 5 6 9 9 9 9 8 9 8 7 7 7 8 8 8 8 7 7 8 8 7 6 4 4 3 4 4 5 5 6 7 7 8 8 8
11 10 10 10 11 12 10 10 10 8 7 7 9 9 9 8 8 8 8 8 8 8 8 8 8 7 7 7 6 6 4 4 3 3 3 4 5 6 8 11 13 15 17 16
7 7 7 4 5 9 10 10 9 10 9 8 8 8 9 7 8 8 9 9 9 9 8 9 8 7 6 6 5 5 4 3 2 3 4 4 5 6 7 8 12 15 17 19
4 6 5 6 6 7 7 6 7 6 6 6 7 8 8 8 8 9 9 9 8 8 8 8 7 6 6 5 4 4 3 3 3 4 4 5 6 6 7 8 9 9 11 15
9 7 5 5 6 6 6 7 8 7 7 7 7 9 9 10 10 8 8 8 9 8 7 7 6 5 5 4 4 3 3 3 3 4 5 6 6 7 8 9 10 10 9 10
9 6 6 6 8 8 9 9 9 9 9 8 8 8 8 8 8 8 8 9 9 8 7 6 5 5 4 4 3 3 3 5 5 5 5 6 7 7 8 9 10 10 10 10
11 10 10 10 10 10 10 10 9 9 9 10 10 10 10 10 9 8 7 6 6 6 5 5 4 4 3 3 3 3 3 4 7 6 6 7 7 8 9 9 10 10 11 11
12 12 12 11 11 11 10 8 8 9 9 9 11 11 11 10 10 9 8 7 6 5 4 3 3 3 3 3 3 3 4 5 5 6 7 7 8 9 9 10 11 13 11 12
8 8 9 8 9 9 10 9 9 9 10 11 11 10 9 8 8 8 8 7 6 4 3 3 3 2 2 3 4 4 5 6 7 7 8 10 11 10 10 11 11 12 12 11
7 7 8 8 8 8 10 10 11 10 10 11 11 11 9 8 8 8 7 4 2 2 3 2 2 2 3 4 5 5 6 7 8 8 9 9 10 10 11 11 12 12 12 12
9 10 10 10 10 10 10 12 12 12 11 10 11 11 10 8 7 6 5 3 2 2 2 2 2 2 3 5 7 6 7 8 8 9 9 10 11 11 11 12 12 12 12 12
10 11 12 13 13 12 10 10 12 13 12 10 10 10 10 8 6 4 3 2 2 1 1 2 2 4 6 8 6 7 7 8 9 9 10 10 11 11 12 12 12 12 12 12
11 12 13 14 14 14 12 11 11 11 11 10 10 9 8 6 4 3 2 2 1 1 2 2 4 8 10 7 6 7 8 9 10 10 10 11 11 12 12 13 12 12 12 12
13 14 14 14 15 15 14 11 10 10 10 9 8 7 6 5 3 2 2 1 1 3 3 4 8 10 11 6 6 7 8 9 10 10 11 11 11 11 12 12 12 12 13 15
14 14 14 14 13 11 12 12 12 11 10 7 7 6 4 3 2 1 1 1 3 4 4 6 9 11 8 6 7 8 9 9 10 11 11 11 11 12 12 12 12 13 13 13
13 12 10 10 10 9 8 8 7 7 6 6 5 4 3 3 2 1 1 2 4 5 5 5 6 8 7 7 8 9 10 11 11 11 11 12 13 13 13 13 16 13 13 13
13 11 10 10 8 7 7 7 7 6 5 5 4 3 2 2 1 1 2 3 4 4 5 6 6 7 7 8 9 10 10 10 11 11 11 11 12 12 13 15 13 13 13 13
Wind_Direction
225 200 183 198 204 207 216 227 239 246 247 251 255 261 268 275 277 272 254 227 212 208 204 199 198 198 197 195 190 185 185 187 189 185 182 182 184 187 191 198 207 215 224 233
209 199 197 209 212 211 220 229 240 251 257 257 261 265 265 264 263 259 252 236 220 212 208 203 200 198 195 194 189 186 188 189 184 180 180 184 187 189 194 203 211 218 229 239
206 192 200 232 222 218 221 226 233 242 249 255 255 253 254 257 256 252 252 240 221 213 209 205 200 196 194 190 183 186 188 186 181 180 182 186 187 192 200 209 217 227 237 245
179 174 219 236 211 218 226 232 231 240 250 251 252 259 261 256 253 250 245 235 220 209 202 196 190 188 185 180 179 183 185 183 181 181 184 185 191 200 208 216 224 235 245 252
183 205 233 234 206 200 211 235 231 233 242 247 247 260 256 241 234 239 240 228 206 188 180 173 173 172 170 172 175 181 184 182 180 181 183 187 197 206 213 222 234 243 252 258
188 207 225 220 183 177 189 241 232 222 232 232 196 231 246 192 190 198 190 165 153 150 152 157 160 162 164 167 174 182 181 178 176 180 184 191 201 210 219 229 242 251 256 260
201 217 236 197 146 155 194 231 197 205 217 208 202 223 166 137 146 149 141 137 141 143 146 150 154 158 161 166 176 173 166 165 169 177 185 193 202 212 224 235 248 256 262 265
204 215 221 159 158 189 210 142 171 189 198 198 201 191 162 160 157 154 145 143 145 141 136 142 153 157 159 164 158 153 154 158 165 174 175 188 203 219 232 243 255 262 267 271
200 213 175 167 190 202 174 179 186 184 182 179 181 187 179 176 170 163 156 150 150 143 136 141 153 159 156 150 148 149 153 159 164 171 180 196 215 230 242 247 254 264 269 274
198 213 197 195 206 207 204 202 192 183 172 174 181 180 177 173 170 166 161 157 153 149 146 146 152 154 146 143 148 152 157 161 168 182 197 211 224 234 242 248 255 263 270 275
211 205 200 218 217 214 208 205 194 186 187 188 179 180 180 177 175 169 161 158 160 158 153 149 149 146 144 148 152 156 161 168 182 200 218 234 240 244 249 252 256 263 270 273
208 195 193 205 206 202 198 203 199 188 186 191 190 184 176 175 169 164 161 158 159 158 153 150 150 147 148 152 159 161 170 185 200 219 235 248 259 263 245 251 263 263 266 270
206 182 194 181 179 186 199 204 195 192 189 183 183 179 170 164 161 158 159 163 164 160 155 152 153 152 153 157 165 176 191 205 221 237 248 257 264 271 279 269 259 263 267 271
184 157 176 193 193 187 183 175 167 169 175 171 164 160 155 150 153 160 165 164 156 151 152 154 155 157 156 162 172 189 207 222 237 248 256 261 265 269 275 282 285 280 272 272
208 208 196 169 156 151 148 147 151 160 157 154 155 156 157 158 160 159 151 146 145 147 152 156 160 162 160 171 186 205 222 235 245 257 261 265 268 270 273 276 278 283 284 280
197 192 182 178 176 168 164 169 172 172 165 159 157 157 154 146 138 135 140 148 152 158 160 164 170 163 165 179 197 220 235 243 256 265 266 267 268 270 273 275 277 279 281 285
177 191 192 194 193 188 185 184 180 168 160 157 153 143 136 133 131 135 141 147 146 147 157 166 164 157 174 195 215 236 248 252 258 264 265 268 270 271 273 274 276 278 279 282
205 202 194 190 188 185 180 172 164 156 152 147 140 139 143 147 147 144 140 136 132 134 150 157 154 168 193 214 235 251 256 262 263 266 269 270 272 272 273 274 277 279 282 283
195 188 184 181 175 169 164 158 152 144 138 139 140 141 139 137 134 135 138 143 149 153 152 149 166 197 223 243 258 260 262 266 269 270 271 274 276 274 274 275 277 279 282 283
172 159 153 145 138 142 144 139 135 133 135 136 132 129 128 129 132 135 140 142 147 139 144 168 200 229 249 258 267 267 267 271 274 276 276 275 276 277 277 278 279 281 282 282
150 141 136 131 125 124 130 133 132 130 130 133 132 131 129 128 132 136 140 136 126 130 158 206 245 263 270 275 275 273 273 276 277 278 279 279 280 280 280 281 281 281 281 281
136 133 130 126 121 115 115 118 121 122 122 120 118 121 124 127 129 124 119 131 135 154 252 257 267 278 287 290 282 279 279 280 280 280 280 281 281 282 282 283 282 282 281 281
123 123 122 121 118 113 107 106 111 115 117 119 123 126 124 124 128 129 121 118 135 286 290 277 288 295 300 296 287 284 284 283 282 282 282 282 281 281 282 283 282 282 283 282
114 113 112 113 113 110 106 103 101 100 102 102 103 108 114 112 96 81 93 98 316 309 296 294 300 303 305 296 289 286 285 284 284 283 283 282 282 282 282 283 283 283 282 283
110 111 113 114 109 107 109 109 104 101 99 97 94 88 80 78 94 88 43 328 314 311 301 301 304 306 302 292 289 287 285 283 284 285 284 285 285 285 284 284 283 283 282 281
106 105 103 100 104 110 113 112 107 106 105 102 92 82 75 69 70 51 345 314 306 306 305 301 301 301 294 291 289 288 287 289 289 286 284 285 284 284 283 282 283 282 281 280
100 99 98 94 91 95 99 101 103 101 100 103 98 85 68 51 27 352 325 313 310 306 302 299 297 295 293 291 290 289 288 287 286 285 285 284 284 283 283 283 283 283 282 281